Torna al catalogo

STARLINK-31506

AttivoComunicazioniVLEO
NORAD 59259·PAYLOAD·🇺🇸 United States

Lanciato Mar 19, 2024 da Vandenberg Space Force Base

Loading…

Prossimi Passaggi (prossime 24 ore)

TLE

AggiornatoSource: CelesTrak SupGP

Epoca: Sep 15, 2026, 02:56 UTC

1 59259C 24050F   26258.12270833  .00036711  00000+0  10844-2 0  2584
2 59259  53.1615  20.5121 0001108  71.8340 153.6429 15.34380516    14

Traccia STARLINK-31506 in tempo reale con AllMySat

Download on the App Store